Time,TemperatureF,DewpointF,PressureIn,WindDirection,WindDirectionDegrees,WindSpeedMPH,WindSpeedGustMPH,Humidity,HourlyPrecipIn,Conditions,Clouds,dailyrainin,SoftwareType,DateUTC
2013-01-29 00:00:00,23.0,20.2,29.94,WSW,245,0.0,0.0,89,0.00,,,0.00,Wunderground v.1.12,2013-01-29 05:00:00,
2013-01-29 00:02:00,22.9,20.1,29.94,WSW,245,1.0,3.0,89,0.00,,,0.00,Wunderground v.1.12,2013-01-29 05:02:00,
2013-01-29 00:04:00,22.9,20.1,29.93,WSW,245,1.0,3.0,89,0.00,,,0.00,Wunderground v.1.12,2013-01-29 05:04:00,
2013-01-29 00:06:00,22.9,20.4,29.93,WSW,245,1.0,1.0,90,0.00,,,0.00,Wunderground v.1.12,2013-01-29 05:06:00,
2013-01-29 00:11:00,23.0,20.5,29.93,WSW,245,0.0,0.0,90,0.00,,,0.00,Wunderground v.1.12,2013-01-29 05:11:00,
2013-01-29 00:17:00,23.0,20.5,29.93,WSW,245,0.0,0.0,90,0.00,,,0.00,Wunderground v.1.12,2013-01-29 05:17:00,
2013-01-29 00:23:00,23.0,20.5,29.94,WSW,248,0.0,5.0,90,0.00,,,0.00,Wunderground v.1.12,2013-01-29 05:23:00,
2013-01-29 00:28:00,23.2,20.7,29.94,WSW,252,1.0,2.0,90,0.00,,,0.00,Wunderground v.1.12,2013-01-29 05:28:00,
2013-01-29 00:34:00,23.2,20.7,29.94,WSW,252,0.0,2.0,90,0.00,,,0.00,Wunderground v.1.12,2013-01-29 05:34:00,
2013-01-29 00:39:00,23.2,20.7,29.94,WSW,252,0.0,1.0,90,0.00,,,0.00,Wunderground v.1.12,2013-01-29 05:39:00,
2013-01-29 00:45:00,23.2,20.7,29.94,WSW,253,1.0,2.0,90,0.00,,,0.00,Wunderground v.1.12,2013-01-29 05:45:00,
2013-01-29 00:50:00,23.2,20.7,29.94,WSW,254,1.0,1.0,90,0.00,,,0.00,Wunderground v.1.12,2013-01-29 05:50:00,
2013-01-29 00:56:00,23.2,20.7,29.94,WSW,258,1.0,1.0,90,0.00,,,0.00,Wunderground v.1.12,2013-01-29 05:56:00,
2013-01-29 01:02:00,23.2,20.7,29.94,West,259,1.0,1.0,90,0.00,,,0.00,Wunderground v.1.12,2013-01-29 06:02:00,
2013-01-29 01:07:00,23.2,20.7,29.94,West,259,1.0,4.0,90,0.00,,,0.00,Wunderground v.1.12,2013-01-29 06:07:00,
2013-01-29 01:13:00,23.2,20.7,29.94,West,259,1.0,3.0,90,0.00,,,0.00,Wunderground v.1.12,2013-01-29 06:13:00,
2013-01-29 01:18:00,23.2,20.7,29.94,West,259,1.0,1.0,90,0.00,,,0.00,Wunderground v.1.12,2013-01-29 06:18:00,
2013-01-29 01:23:00,23.3,20.8,29.94,West,259,0.0,1.0,90,0.00,,,0.00,Wunderground v.1.12,2013-01-29 06:23:00,
2013-01-29 01:29:00,23.3,20.8,29.94,West,259,0.0,2.0,90,0.00,,,0.00,Wunderground v.1.12,2013-01-29 06:29:00,
2013-01-29 01:35:00,23.3,20.8,29.94,West,259,1.0,1.0,90,0.00,,,0.00,Wunderground v.1.12,2013-01-29 06:35:00,
2013-01-29 01:41:00,23.3,20.8,29.94,West,259,1.0,1.0,90,0.00,,,0.00,Wunderground v.1.12,2013-01-29 06:41:00,
2013-01-29 01:46:00,23.2,20.7,29.94,West,259,1.0,1.0,90,0.00,,,0.00,Wunderground v.1.12,2013-01-29 06:46:00,
2013-01-29 01:52:00,23.3,20.8,29.95,West,259,1.0,3.0,90,0.00,,,0.00,Wunderground v.1.12,2013-01-29 06:52:00,
2013-01-29 01:58:00,23.3,20.8,29.95,West,259,1.0,1.0,90,0.00,,,0.00,Wunderground v.1.12,2013-01-29 06:58:00,
2013-01-29 02:03:00,23.3,20.8,29.95,West,259,0.0,2.0,90,0.00,,,0.00,Wunderground v.1.12,2013-01-29 07:03:00,
2013-01-29 02:09:00,23.3,20.8,29.95,West,259,1.0,3.0,90,0.00,,,0.00,Wunderground v.1.12,2013-01-29 07:09:00,
2013-01-29 02:15:00,23.3,20.8,29.95,West,259,1.0,1.0,90,0.00,,,0.00,Wunderground v.1.12,2013-01-29 07:15:00,
2013-01-29 02:21:00,23.3,20.8,29.95,West,259,1.0,2.0,90,0.00,,,0.00,Wunderground v.1.12,2013-01-29 07:21:00,
2013-01-29 02:27:00,23.2,20.7,29.95,West,260,1.0,2.0,90,0.00,,,0.00,Wunderground v.1.12,2013-01-29 07:27:00,
2013-01-29 02:32:00,23.2,20.7,29.95,West,263,1.0,1.0,90,0.00,,,0.00,Wunderground v.1.12,2013-01-29 07:32:00,
2013-01-29 02:37:00,23.2,20.7,29.95,West,265,1.0,1.0,90,0.00,,,0.00,Wunderground v.1.12,2013-01-29 07:37:00,
2013-01-29 02:42:00,23.2,20.7,29.95,West,265,1.0,2.0,90,0.00,,,0.00,Wunderground v.1.12,2013-01-29 07:42:00,
2013-01-29 02:48:00,23.3,20.8,29.96,West,265,0.0,2.0,90,0.00,,,0.00,Wunderground v.1.12,2013-01-29 07:48:00,
2013-01-29 02:53:00,23.3,20.8,29.96,West,270,1.0,6.0,90,0.00,,,0.00,Wunderground v.1.12,2013-01-29 07:53:00,
2013-01-29 02:59:00,23.2,20.7,29.96,West,265,1.0,3.0,90,0.00,,,0.00,Wunderground v.1.12,2013-01-29 07:59:00,
2013-01-29 03:04:00,23.2,20.7,29.96,West,265,1.0,3.0,90,0.00,,,0.00,Wunderground v.1.12,2013-01-29 08:04:00,
2013-01-29 03:10:00,23.0,20.5,29.96,West,265,1.0,1.0,90,0.00,,,0.00,Wunderground v.1.12,2013-01-29 08:10:00,
2013-01-29 03:15:00,23.0,20.5,29.96,West,270,2.0,2.0,90,0.00,,,0.00,Wunderground v.1.12,2013-01-29 08:15:00,
2013-01-29 03:20:00,23.2,20.7,29.96,West,270,2.0,2.0,90,0.00,,,0.00,Wunderground v.1.12,2013-01-29 08:20:00,
2013-01-29 03:27:00,23.0,20.5,29.96,West,270,1.0,6.0,90,0.00,,,0.00,Wunderground v.1.12,2013-01-29 08:27:00,
2013-01-29 03:32:00,23.2,20.7,29.96,West,270,0.0,1.0,90,0.00,,,0.00,Wunderground v.1.12,2013-01-29 08:32:00,
2013-01-29 03:38:00,23.2,20.4,29.96,West,271,1.0,4.0,89,0.00,,,0.00,Wunderground v.1.12,2013-01-29 08:38:00,
2013-01-29 03:43:00,23.2,20.4,29.96,West,271,1.0,1.0,89,0.00,,,0.00,Wunderground v.1.12,2013-01-29 08:43:00,
2013-01-29 03:48:00,23.2,20.4,29.97,West,277,1.0,3.0,89,0.00,,,0.00,Wunderground v.1.12,2013-01-29 08:48:00,
2013-01-29 03:53:00,23.2,20.4,29.97,West,270,1.0,6.0,89,0.00,,,0.00,Wunderground v.1.12,2013-01-29 08:53:00,
2013-01-29 03:58:00,23.3,20.5,29.97,WNW,283,1.0,2.0,89,0.00,,,0.00,Wunderground v.1.12,2013-01-29 08:58:00,
2013-01-29 04:04:00,23.3,20.5,29.97,WNW,286,1.0,3.0,89,0.00,,,0.00,Wunderground v.1.12,2013-01-29 09:04:00,
2013-01-29 04:10:00,23.3,20.5,29.97,WNW,286,1.0,1.0,89,0.00,,,0.00,Wunderground v.1.12,2013-01-29 09:10:00,
2013-01-29 04:15:00,23.3,20.5,29.97,WNW,286,1.0,1.0,89,0.00,,,0.00,Wunderground v.1.12,2013-01-29 09:15:00,
2013-01-29 04:21:00,23.3,20.5,29.97,WNW,286,1.0,2.0,89,0.00,,,0.00,Wunderground v.1.12,2013-01-29 09:21:00,
2013-01-29 04:27:00,23.5,20.7,29.97,WNW,286,1.0,3.0,89,0.00,,,0.00,Wunderground v.1.12,2013-01-29 09:27:00,
2013-01-29 04:32:00,23.5,20.5,29.97,WNW,286,1.0,2.0,88,0.00,,,0.00,Wunderground v.1.12,2013-01-29 09:32:00,
2013-01-29 04:37:00,23.5,20.5,29.97,WNW,286,1.0,3.0,88,0.00,,,0.00,Wunderground v.1.12,2013-01-29 09:37:00,
2013-01-29 04:42:00,23.5,20.5,29.97,WNW,286,1.0,3.0,88,0.00,,,0.00,Wunderground v.1.12,2013-01-29 09:42:00,
2013-01-29 04:49:00,23.5,20.5,29.98,WNW,286,1.0,2.0,88,0.00,,,0.00,Wunderground v.1.12,2013-01-29 09:49:00,
2013-01-29 04:54:00,23.5,20.5,29.98,WNW,286,1.0,2.0,88,0.00,,,0.00,Wunderground v.1.12,2013-01-29 09:54:00,
2013-01-29 04:59:00,23.5,20.5,29.98,WNW,290,1.0,2.0,88,0.00,,,0.00,Wunderground v.1.12,2013-01-29 09:59:00,
2013-01-29 05:04:00,23.6,20.6,29.98,WNW,290,1.0,2.0,88,0.00,,,0.00,Wunderground v.1.12,2013-01-29 10:04:00,
2013-01-29 05:10:00,23.6,20.6,29.98,WNW,290,0.0,0.0,88,0.00,,,0.00,Wunderground v.1.12,2013-01-29 10:10:00,
2013-01-29 05:15:00,23.6,20.6,29.98,WNW,290,0.0,1.0,88,0.00,,,0.00,Wunderground v.1.12,2013-01-29 10:15:00,
2013-01-29 05:21:00,23.6,20.6,29.98,WNW,290,0.0,0.0,88,0.00,,,0.00,Wunderground v.1.12,2013-01-29 10:21:00,
2013-01-29 05:26:00,23.5,20.5,29.98,WNW,290,0.0,3.0,88,0.00,,,0.00,Wunderground v.1.12,2013-01-29 10:26:00,
2013-01-29 05:31:00,23.5,20.5,29.98,WNW,290,1.0,1.0,88,0.00,,,0.00,Wunderground v.1.12,2013-01-29 10:31:00,
2013-01-29 05:36:00,23.5,20.5,29.99,WNW,290,0.0,1.0,88,0.00,,,0.00,Wunderground v.1.12,2013-01-29 10:36:00,
2013-01-29 05:42:00,23.5,20.5,29.99,WNW,290,0.0,1.0,88,0.00,,,0.00,Wunderground v.1.12,2013-01-29 10:42:00,
2013-01-29 05:49:00,23.5,20.5,29.99,WNW,290,1.0,3.0,88,0.00,,,0.00,Wunderground v.1.12,2013-01-29 10:49:00,
2013-01-29 05:54:00,23.5,20.5,29.99,WNW,290,1.0,2.0,88,0.00,,,0.00,Wunderground v.1.12,2013-01-29 10:54:00,
2013-01-29 06:00:00,23.5,20.5,29.99,WNW,290,0.0,1.0,88,0.00,,,0.00,Wunderground v.1.12,2013-01-29 11:00:00,
2013-01-29 06:05:00,23.5,20.5,29.99,WNW,290,1.0,2.0,88,0.00,,,0.00,Wunderground v.1.12,2013-01-29 11:05:00,
2013-01-29 06:10:00,23.5,20.2,29.99,WNW,290,1.0,1.0,87,0.00,,,0.00,Wunderground v.1.12,2013-01-29 11:10:00,
2013-01-29 06:15:00,23.5,20.2,29.99,WNW,290,0.0,0.0,87,0.00,,,0.00,Wunderground v.1.12,2013-01-29 11:15:00,
2013-01-29 06:20:00,23.5,20.5,30.01,WNW,290,0.0,0.0,88,0.00,,,0.00,Wunderground v.1.12,2013-01-29 11:20:00,
2013-01-29 06:26:00,23.6,20.3,30.01,WNW,290,0.0,0.0,87,0.00,,,0.00,Wunderground v.1.12,2013-01-29 11:26:00,
2013-01-29 06:31:00,23.6,20.3,30.01,WNW,290,0.0,0.0,87,0.00,,,0.00,Wunderground v.1.12,2013-01-29 11:31:00,
2013-01-29 06:36:00,23.6,20.3,30.00,WNW,290,0.0,0.0,87,0.00,,,0.00,Wunderground v.1.12,2013-01-29 11:36:00,
2013-01-29 06:42:00,23.6,20.3,30.00,WNW,290,0.0,1.0,87,0.00,,,0.00,Wunderground v.1.12,2013-01-29 11:42:00,
2013-01-29 06:47:00,23.8,20.5,30.00,WNW,290,0.0,1.0,87,0.00,,,0.00,Wunderground v.1.12,2013-01-29 11:47:00,
2013-01-29 06:52:00,23.8,20.5,30.02,WNW,290,0.0,0.0,87,0.00,,,0.00,Wunderground v.1.12,2013-01-29 11:52:00,
2013-01-29 06:57:00,23.8,20.5,30.02,WNW,290,1.0,2.0,87,0.00,,,0.00,Wunderground v.1.12,2013-01-29 11:57:00,
2013-01-29 07:02:00,23.8,20.5,30.02,WNW,290,1.0,1.0,87,0.00,,,0.00,Wunderground v.1.12,2013-01-29 12:02:00,
2013-01-29 07:08:00,23.8,20.5,30.02,WNW,290,0.0,1.0,87,0.00,,,0.00,Wunderground v.1.12,2013-01-29 12:08:00,
2013-01-29 07:14:00,23.9,20.6,30.02,WNW,290,0.0,0.0,87,0.00,,,0.00,Wunderground v.1.12,2013-01-29 12:14:00,
2013-01-29 07:20:00,23.9,20.6,30.03,WNW,290,0.0,0.0,87,0.00,,,0.00,Wunderground v.1.12,2013-01-29 12:20:00,
2013-01-29 07:25:00,23.9,20.6,30.03,WNW,290,0.0,0.0,87,0.00,,,0.00,Wunderground v.1.12,2013-01-29 12:25:00,
2013-01-29 07:30:00,23.9,20.6,30.03,WNW,290,0.0,1.0,87,0.00,,,0.00,Wunderground v.1.12,2013-01-29 12:30:00,
2013-01-29 07:35:00,24.1,20.8,30.03,WNW,290,0.0,0.0,87,0.00,,,0.00,Wunderground v.1.12,2013-01-29 12:35:00,
2013-01-29 07:41:00,24.1,20.8,30.03,WNW,290,0.0,0.0,87,0.00,,,0.00,Wunderground v.1.12,2013-01-29 12:41:00,
2013-01-29 07:47:00,24.1,20.5,30.03,WNW,290,1.0,2.0,86,0.00,,,0.00,Wunderground v.1.12,2013-01-29 12:47:00,
2013-01-29 07:53:00,24.2,20.6,30.05,WNW,293,0.0,3.0,86,0.00,,,0.00,Wunderground v.1.12,2013-01-29 12:53:00,
2013-01-29 07:58:00,24.4,20.8,30.05,WNW,290,1.0,2.0,86,0.00,,,0.00,Wunderground v.1.12,2013-01-29 12:58:00,
2013-01-29 08:03:00,24.4,20.8,30.05,WNW,290,1.0,1.0,86,0.00,,,0.00,Wunderground v.1.12,2013-01-29 13:03:00,
2013-01-29 08:09:00,24.4,20.8,30.05,WNW,290,1.0,4.0,86,0.00,,,0.00,Wunderground v.1.12,2013-01-29 13:09:00,
2013-01-29 08:14:00,24.5,20.9,30.05,WNW,290,1.0,2.0,86,0.00,,,0.00,Wunderground v.1.12,2013-01-29 13:14:00,
2013-01-29 08:19:00,24.7,21.1,30.05,WNW,290,1.0,2.0,86,0.00,,,0.00,Wunderground v.1.12,2013-01-29 13:19:00,
2013-01-29 08:25:00,24.7,21.1,30.05,WNW,290,0.0,2.0,86,0.00,,,0.00,Wunderground v.1.12,2013-01-29 13:25:00,
2013-01-29 08:30:00,24.7,21.1,30.05,WNW,290,1.0,1.0,86,0.00,,,0.00,Wunderground v.1.12,2013-01-29 13:30:00,
2013-01-29 08:35:00,24.8,20.9,30.05,WNW,290,1.0,2.0,85,0.00,,,0.00,Wunderground v.1.12,2013-01-29 13:35:00,
2013-01-29 08:41:00,24.8,20.9,30.05,WNW,290,1.0,2.0,85,0.00,,,0.00,Wunderground v.1.12,2013-01-29 13:41:00,
2013-01-29 08:47:00,25.0,21.1,30.05,WNW,290,1.0,2.0,85,0.00,,,0.00,Wunderground v.1.12,2013-01-29 13:47:00,
2013-01-29 08:52:00,25.1,21.2,30.06,WNW,290,1.0,3.0,85,0.00,,,0.00,Wunderground v.1.12,2013-01-29 13:52:00,
2013-01-29 08:57:00,25.3,21.1,30.06,WNW,290,1.0,1.0,84,0.00,,,0.00,Wunderground v.1.12,2013-01-29 13:57:00,
2013-01-29 09:03:00,25.4,21.2,30.07,WNW,290,1.0,3.0,84,0.00,,,0.00,Wunderground v.1.12,2013-01-29 14:03:00,
2013-01-29 09:09:00,25.6,21.4,30.07,WNW,290,1.0,2.0,84,0.00,,,0.00,Wunderground v.1.12,2013-01-29 14:09:00,
2013-01-29 09:14:00,25.8,21.6,30.07,WNW,290,1.0,2.0,84,0.00,,,0.00,Wunderground v.1.12,2013-01-29 14:14:00,
2013-01-29 09:19:00,26.0,21.5,30.07,WNW,290,1.0,3.0,83,0.00,,,0.00,Wunderground v.1.12,2013-01-29 14:19:00,
2013-01-29 09:25:00,26.1,21.6,30.07,WNW,290,1.0,1.0,83,0.00,,,0.00,Wunderground v.1.12,2013-01-29 14:25:00,
2013-01-29 09:30:00,26.3,21.8,30.07,WNW,290,1.0,1.0,83,0.00,,,0.00,Wunderground v.1.12,2013-01-29 14:30:00,
2013-01-29 09:35:00,26.4,21.7,30.07,WNW,290,1.0,1.0,82,0.00,,,0.00,Wunderground v.1.12,2013-01-29 14:35:00,
2013-01-29 09:41:00,26.7,22.2,30.07,WNW,290,0.0,0.0,83,0.00,,,0.00,Wunderground v.1.12,2013-01-29 14:41:00,
2013-01-29 09:47:00,26.9,22.1,30.07,WNW,290,0.0,0.0,82,0.00,,,0.00,Wunderground v.1.12,2013-01-29 14:47:00,
2013-01-29 09:53:00,27.0,22.2,30.08,WNW,293,1.0,5.0,82,0.00,,,0.00,Wunderground v.1.12,2013-01-29 14:53:00,
2013-01-29 09:58:00,27.3,22.5,30.08,WNW,290,0.0,0.0,82,0.00,,,0.00,Wunderground v.1.12,2013-01-29 14:58:00,
2013-01-29 10:04:00,27.5,22.4,30.09,WNW,290,0.0,1.0,81,0.00,,,0.00,Wunderground v.1.12,2013-01-29 15:04:00,
2013-01-29 10:12:00,27.6,22.5,30.09,WNW,290,0.0,0.0,81,0.00,,,0.00,Wunderground v.1.12,2013-01-29 15:12:00,
2013-01-29 10:16:00,27.8,22.7,30.09,WNW,290,0.0,3.0,81,0.00,,,0.00,Wunderground v.1.12,2013-01-29 15:16:00,
2013-01-29 10:22:00,27.8,22.4,30.09,WNW,290,1.0,1.0,80,0.00,,,0.00,Wunderground v.1.12,2013-01-29 15:22:00,
2013-01-29 10:27:00,27.9,22.5,30.09,WNW,290,1.0,1.0,80,0.00,,,0.00,Wunderground v.1.12,2013-01-29 15:27:00,
2013-01-29 10:33:00,28.1,22.7,30.08,WNW,290,1.0,1.0,80,0.00,,,0.00,Wunderground v.1.12,2013-01-29 15:33:00,
2013-01-29 10:38:00,28.1,22.4,30.08,WNW,290,1.0,2.0,79,0.00,,,0.00,Wunderground v.1.12,2013-01-29 15:38:00,
2013-01-29 10:44:00,28.1,22.7,30.08,WNW,290,1.0,1.0,80,0.00,,,0.00,Wunderground v.1.12,2013-01-29 15:44:00,
2013-01-29 10:50:00,28.4,23.0,30.08,WNW,290,1.0,2.0,80,0.00,,,0.00,Wunderground v.1.12,2013-01-29 15:50:00,
2013-01-29 10:55:00,28.5,23.1,30.08,WNW,291,1.0,2.0,80,0.00,,,0.00,Wunderground v.1.12,2013-01-29 15:55:00,
2013-01-29 11:00:00,28.8,23.4,30.08,WNW,294,1.0,3.0,80,0.00,,,0.00,Wunderground v.1.12,2013-01-29 16:00:00,
2013-01-29 11:05:00,29.0,23.6,30.09,WNW,294,1.0,1.0,80,0.00,,,0.00,Wunderground v.1.12,2013-01-29 16:05:00,
2013-01-29 11:10:00,29.0,23.6,30.09,WNW,295,1.0,1.0,80,0.00,,,0.00,Wunderground v.1.12,2013-01-29 16:10:00,
2013-01-29 11:16:00,29.3,23.9,30.09,WNW,295,0.0,0.0,80,0.00,,,0.00,Wunderground v.1.12,2013-01-29 16:16:00,
2013-01-29 11:21:00,29.5,23.8,30.09,WNW,295,0.0,4.0,79,0.00,,,0.00,Wunderground v.1.12,2013-01-29 16:21:00,
2013-01-29 11:27:00,29.4,23.4,30.09,WNW,295,1.0,1.0,78,0.00,,,0.00,Wunderground v.1.12,2013-01-29 16:27:00,
2013-01-29 11:33:00,29.5,23.5,30.10,WNW,295,1.0,2.0,78,0.00,,,0.00,Wunderground v.1.12,2013-01-29 16:33:00,
2013-01-29 11:39:00,29.7,23.7,30.10,WNW,295,0.0,2.0,78,0.00,,,0.00,Wunderground v.1.12,2013-01-29 16:39:00,
2013-01-29 11:45:00,30.0,24.0,30.10,WNW,295,0.0,0.0,78,0.00,,,0.00,Wunderground v.1.12,2013-01-29 16:45:00,
2013-01-29 11:51:00,30.3,24.0,30.09,WNW,295,0.0,0.0,77,0.00,,,0.00,Wunderground v.1.12,2013-01-29 16:51:00,
2013-01-29 11:57:00,30.3,24.0,30.09,WNW,295,0.0,0.0,77,0.00,,,0.00,Wunderground v.1.12,2013-01-29 16:57:00,
2013-01-29 12:03:00,30.6,24.2,30.08,WNW,295,0.0,1.0,77,0.00,,,0.00,Wunderground v.1.12,2013-01-29 17:03:00,
2013-01-29 12:08:00,30.7,24.3,30.08,WNW,295,0.0,1.0,77,0.00,,,0.00,Wunderground v.1.12,2013-01-29 17:08:00,
2013-01-29 12:14:00,31.0,24.3,30.08,WNW,295,0.0,1.0,76,0.00,,,0.00,Wunderground v.1.12,2013-01-29 17:14:00,
2013-01-29 12:20:00,31.2,24.5,30.07,WNW,295,0.0,0.0,76,0.00,,,0.00,Wunderground v.1.12,2013-01-29 17:20:00,
2013-01-29 12:25:00,31.3,24.6,30.07,WNW,295,0.0,0.0,76,0.00,,,0.01,Wunderground v.1.12,2013-01-29 17:25:00,
2013-01-29 12:31:00,31.6,24.9,30.07,WNW,295,0.0,0.0,76,0.00,,,0.01,Wunderground v.1.12,2013-01-29 17:31:00,
2013-01-29 12:36:00,31.9,25.2,30.06,WNW,295,0.0,1.0,76,0.00,,,0.01,Wunderground v.1.12,2013-01-29 17:36:00,
2013-01-29 12:42:00,32.1,25.4,30.06,WNW,295,0.0,0.0,76,0.00,,,0.01,Wunderground v.1.12,2013-01-29 17:42:00,
2013-01-29 12:47:00,32.5,25.8,30.06,WNW,295,0.0,0.0,76,0.00,,,0.01,Wunderground v.1.12,2013-01-29 17:47:00,
2013-01-29 12:54:00,32.7,26.0,30.06,WNW,293,0.0,2.0,76,0.01,,,0.01,Wunderground v.1.12,2013-01-29 17:54:00,
2013-01-29 12:59:00,32.9,25.5,30.06,WNW,295,0.0,1.0,74,0.00,,,0.02,Wunderground v.1.12,2013-01-29 17:59:00,
2013-01-29 13:04:00,32.4,25.0,30.06,WNW,295,1.0,2.0,74,0.00,,,0.02,Wunderground v.1.12,2013-01-29 18:04:00,
2013-01-29 13:09:00,32.4,25.4,30.06,WNW,295,1.0,1.0,75,0.00,,,0.02,Wunderground v.1.12,2013-01-29 18:09:00,
2013-01-29 13:15:00,32.7,26.0,30.06,WNW,295,0.0,0.0,76,0.00,,,0.02,Wunderground v.1.12,2013-01-29 18:15:00,
2013-01-29 13:20:00,33.1,26.0,30.06,WNW,295,0.0,1.0,75,0.00,,,0.02,Wunderground v.1.12,2013-01-29 18:20:00,
2013-01-29 13:26:00,33.1,25.7,30.06,WNW,295,0.0,2.0,74,0.00,,,0.02,Wunderground v.1.12,2013-01-29 18:26:00,
2013-01-29 13:31:00,33.4,26.0,30.06,WNW,295,0.0,1.0,74,0.00,,,0.02,Wunderground v.1.12,2013-01-29 18:31:00,
2013-01-29 13:37:00,33.8,26.4,30.06,WNW,295,0.0,0.0,74,0.00,,,0.02,Wunderground v.1.12,2013-01-29 18:37:00,
2013-01-29 13:43:00,34.0,26.3,30.06,WNW,295,0.0,0.0,73,0.00,,,0.02,Wunderground v.1.12,2013-01-29 18:43:00,
2013-01-29 13:48:00,34.1,26.7,30.05,WNW,295,0.0,0.0,74,0.00,,,0.02,Wunderground v.1.12,2013-01-29 18:48:00,
2013-01-29 13:54:00,34.3,26.5,30.05,WNW,295,0.0,0.0,73,0.00,,,0.02,Wunderground v.1.12,2013-01-29 18:54:00,
2013-01-29 14:00:00,34.7,26.9,30.05,WNW,295,0.0,0.0,73,0.21,,,0.04,Wunderground v.1.12,2013-01-29 19:00:00,
2013-01-29 14:06:00,35.2,27.4,30.05,WNW,295,0.0,0.0,73,0.09,,,0.05,Wunderground v.1.12,2013-01-29 19:06:00,
2013-01-29 14:11:00,35.5,27.7,30.05,WNW,295,0.0,1.0,73,0.08,,,0.05,Wunderground v.1.12,2013-01-29 19:11:00,
2013-01-29 14:17:00,35.5,27.4,30.05,WNW,295,0.0,0.0,72,0.08,,,0.06,Wunderground v.1.12,2013-01-29 19:17:00,
2013-01-29 14:23:00,35.5,27.4,30.06,WNW,293,0.0,3.0,72,0.04,,,0.06,Wunderground v.1.12,2013-01-29 19:23:00,
2013-01-29 14:29:00,35.0,27.2,30.06,WNW,295,0.0,0.0,73,0.06,,,0.07,Wunderground v.1.12,2013-01-29 19:29:00,
2013-01-29 14:34:00,34.9,27.1,30.06,WNW,295,0.0,1.0,73,0.05,,,0.07,Wunderground v.1.12,2013-01-29 19:34:00,
2013-01-29 14:39:00,34.7,27.3,30.06,WNW,295,0.0,0.0,74,0.05,,,0.08,Wunderground v.1.12,2013-01-29 19:39:00,
2013-01-29 14:44:00,34.7,27.3,30.06,WNW,295,0.0,0.0,74,0.05,,,0.08,Wunderground v.1.12,2013-01-29 19:44:00,
2013-01-29 14:50:00,34.6,27.2,30.06,WNW,295,0.0,0.0,74,0.04,,,0.08,Wunderground v.1.12,2013-01-29 19:50:00,
2013-01-29 14:56:00,34.6,27.5,30.06,WNW,295,0.0,0.0,75,0.00,,,0.09,Wunderground v.1.12,2013-01-29 19:56:00,
2013-01-29 15:01:00,34.6,27.8,30.06,WNW,295,0.0,0.0,76,0.00,,,0.09,Wunderground v.1.12,2013-01-29 20:01:00,
2013-01-29 15:07:00,34.6,27.8,30.07,WNW,295,0.0,0.0,76,0.00,,,0.09,Wunderground v.1.12,2013-01-29 20:07:00,
2013-01-29 15:08:00,34.6,27.5,30.07,WNW,295,0.0,0.0,75,0.00,,,0.09,Wunderground v.1.12,2013-01-29 20:08:00,
2013-01-29 15:14:00,34.6,27.8,30.07,WNW,295,0.0,0.0,76,0.00,,,0.09,Wunderground v.1.12,2013-01-29 20:14:00,
2013-01-29 15:19:00,34.4,27.6,30.07,WNW,295,0.0,0.0,76,0.00,,,0.09,Wunderground v.1.12,2013-01-29 20:19:00,
2013-01-29 15:25:00,34.3,27.8,30.07,WNW,295,0.0,0.0,77,0.00,,,0.09,Wunderground v.1.12,2013-01-29 20:25:00,
2013-01-29 15:30:00,34.3,27.8,30.07,WNW,295,0.0,0.0,77,0.00,,,0.09,Wunderground v.1.12,2013-01-29 20:30:00,
2013-01-29 15:36:00,34.1,27.6,30.07,WNW,295,0.0,1.0,77,0.00,,,0.09,Wunderground v.1.12,2013-01-29 20:36:00,
2013-01-29 15:41:00,34.0,27.9,30.07,WNW,295,0.0,0.0,78,0.00,,,0.10,Wunderground v.1.12,2013-01-29 20:41:00,
2013-01-29 15:46:00,33.8,27.7,30.07,WNW,295,0.0,0.0,78,0.00,,,0.10,Wunderground v.1.12,2013-01-29 20:46:00,
2013-01-29 15:52:00,33.5,27.4,30.07,WNW,295,0.0,1.0,78,0.00,,,0.10,Wunderground v.1.12,2013-01-29 20:52:00,
2013-01-29 15:58:00,33.4,27.6,30.07,WNW,295,0.0,0.0,79,0.00,,,0.10,Wunderground v.1.12,2013-01-29 20:58:00,
2013-01-29 16:03:00,33.4,27.6,30.08,WNW,295,0.0,0.0,79,0.00,,,0.10,Wunderground v.1.12,2013-01-29 21:03:00,
2013-01-29 16:08:00,33.2,27.7,30.08,WNW,295,0.0,0.0,80,0.00,,,0.10,Wunderground v.1.12,2013-01-29 21:08:00,
2013-01-29 16:14:00,33.1,27.6,30.08,WNW,295,0.0,0.0,80,0.00,,,0.10,Wunderground v.1.12,2013-01-29 21:14:00,
2013-01-29 16:20:00,33.1,27.6,30.06,WNW,295,0.0,0.0,80,0.00,,,0.10,Wunderground v.1.12,2013-01-29 21:20:00,
2013-01-29 16:26:00,32.9,27.7,30.06,WNW,295,0.0,0.0,81,0.00,,,0.10,Wunderground v.1.12,2013-01-29 21:26:00,
2013-01-29 16:31:00,32.9,27.7,30.06,WNW,295,0.0,0.0,81,0.00,,,0.10,Wunderground v.1.12,2013-01-29 21:31:00,
2013-01-29 16:36:00,32.8,27.6,30.06,WNW,295,0.0,0.0,81,0.00,,,0.10,Wunderground v.1.12,2013-01-29 21:36:00,
2013-01-29 16:42:00,32.8,27.6,30.06,WNW,295,0.0,0.0,81,0.00,,,0.10,Wunderground v.1.12,2013-01-29 21:42:00,
2013-01-29 16:48:00,32.7,27.8,30.08,WNW,295,0.0,0.0,82,0.00,,,0.10,Wunderground v.1.12,2013-01-29 21:48:00,
2013-01-29 16:53:00,32.7,28.1,30.08,WNW,295,0.0,1.0,83,0.00,,,0.10,Wunderground v.1.12,2013-01-29 21:53:00,
2013-01-29 17:02:00,32.5,27.9,30.08,WNW,295,0.0,0.0,83,0.00,,,0.10,Wunderground v.1.12,2013-01-29 22:02:00,
2013-01-29 17:08:00,32.5,27.9,30.08,WNW,295,0.0,0.0,83,0.00,,,0.10,Wunderground v.1.12,2013-01-29 22:08:00,
2013-01-29 17:14:00,32.4,27.8,30.08,WNW,295,0.0,0.0,83,0.00,,,0.10,Wunderground v.1.12,2013-01-29 22:14:00,
2013-01-29 17:19:00,32.4,27.8,30.08,WNW,295,0.0,0.0,83,0.00,,,0.10,Wunderground v.1.12,2013-01-29 22:19:00,
2013-01-29 17:24:00,32.5,27.9,30.08,WNW,295,0.0,0.0,83,0.00,,,0.10,Wunderground v.1.12,2013-01-29 22:24:00,
2013-01-29 17:30:00,32.5,27.9,30.08,WNW,295,0.0,0.0,83,0.00,,,0.10,Wunderground v.1.12,2013-01-29 22:30:00,
2013-01-29 17:36:00,32.4,28.1,30.07,WNW,295,0.0,0.0,84,0.00,,,0.10,Wunderground v.1.12,2013-01-29 22:36:00,
2013-01-29 17:41:00,32.4,28.1,30.07,WNW,295,0.0,0.0,84,0.00,,,0.10,Wunderground v.1.12,2013-01-29 22:41:00,
2013-01-29 17:46:00,32.4,28.4,30.07,WNW,295,0.0,0.0,85,0.00,,,0.10,Wunderground v.1.12,2013-01-29 22:46:00,
2013-01-29 17:51:00,32.2,28.2,30.09,WNW,295,0.0,0.0,85,0.00,,,0.10,Wunderground v.1.12,2013-01-29 22:51:00,
2013-01-29 17:57:00,32.2,28.5,30.09,WNW,295,0.0,0.0,86,0.00,,,0.10,Wunderground v.1.12,2013-01-29 22:57:00,
2013-01-29 18:03:00,32.2,28.5,30.09,WNW,295,0.0,0.0,86,0.00,,,0.10,Wunderground v.1.12,2013-01-29 23:03:00,
2013-01-29 18:08:00,32.2,28.5,30.09,WNW,295,0.0,0.0,86,0.00,,,0.10,Wunderground v.1.12,2013-01-29 23:08:00,
2013-01-29 18:14:00,32.2,28.5,30.09,WNW,295,0.0,0.0,86,0.00,,,0.10,Wunderground v.1.12,2013-01-29 23:14:00,
2013-01-29 18:20:00,32.2,28.5,30.09,WNW,295,0.0,0.0,86,0.00,,,0.10,Wunderground v.1.12,2013-01-29 23:20:00,
2013-01-29 18:26:00,32.2,28.5,30.09,WNW,295,0.0,0.0,86,0.00,,,0.10,Wunderground v.1.12,2013-01-29 23:26:00,
2013-01-29 18:31:00,32.2,28.5,30.09,WNW,295,0.0,0.0,86,0.00,,,0.10,Wunderground v.1.12,2013-01-29 23:31:00,
2013-01-29 18:37:00,32.2,28.5,30.09,WNW,295,0.0,0.0,86,0.00,,,0.10,Wunderground v.1.12,2013-01-29 23:37:00,
2013-01-29 18:43:00,32.2,28.5,30.09,WNW,295,0.0,0.0,86,0.00,,,0.11,Wunderground v.1.12,2013-01-29 23:43:00,
2013-01-29 18:49:00,32.2,28.5,30.08,WNW,295,0.0,0.0,86,0.00,,,0.11,Wunderground v.1.12,2013-01-29 23:49:00,
2013-01-29 18:55:00,32.2,28.5,30.08,WNW,295,0.0,0.0,86,0.00,,,0.11,Wunderground v.1.12,2013-01-29 23:55:00,
2013-01-29 19:00:00,32.2,28.5,30.08,WNW,295,0.0,0.0,86,0.00,,,0.11,Wunderground v.1.12,2013-01-30 00:00:00,
2013-01-29 19:05:00,32.2,28.8,30.09,WNW,295,0.0,0.0,87,0.00,,,0.11,Wunderground v.1.12,2013-01-30 00:05:00,
2013-01-29 19:11:00,32.2,28.8,30.09,WNW,295,0.0,0.0,87,0.00,,,0.11,Wunderground v.1.12,2013-01-30 00:11:00,
2013-01-29 19:16:00,32.2,28.8,30.09,WNW,295,0.0,0.0,87,0.00,,,0.11,Wunderground v.1.12,2013-01-30 00:16:00,
2013-01-29 19:21:00,32.2,28.8,30.08,WNW,295,0.0,0.0,87,0.00,,,0.11,Wunderground v.1.12,2013-01-30 00:21:00,
2013-01-29 19:27:00,32.2,28.8,30.08,WNW,295,0.0,0.0,87,0.00,,,0.11,Wunderground v.1.12,2013-01-30 00:27:00,
2013-01-29 19:32:00,32.2,28.8,30.08,WNW,295,0.0,0.0,87,0.00,,,0.11,Wunderground v.1.12,2013-01-30 00:32:00,
2013-01-29 19:39:00,32.2,28.8,30.08,WNW,295,0.0,0.0,87,0.00,,,0.11,Wunderground v.1.12,2013-01-30 00:39:00,
2013-01-29 19:44:00,32.2,28.8,30.08,WNW,295,0.0,0.0,87,0.00,,,0.11,Wunderground v.1.12,2013-01-30 00:44:00,
2013-01-29 19:50:00,32.2,28.8,30.08,WNW,295,0.0,0.0,87,0.00,,,0.11,Wunderground v.1.12,2013-01-30 00:50:00,
2013-01-29 19:55:00,32.2,28.8,30.08,WNW,295,0.0,0.0,87,0.00,,,0.11,Wunderground v.1.12,2013-01-30 00:55:00,
2013-01-29 20:01:00,32.2,28.8,30.08,WNW,295,0.0,0.0,87,0.00,,,0.11,Wunderground v.1.12,2013-01-30 01:01:00,
2013-01-29 20:06:00,32.2,28.8,30.07,WNW,295,0.0,0.0,87,0.00,,,0.11,Wunderground v.1.12,2013-01-30 01:06:00,
2013-01-29 20:11:00,32.2,28.8,30.07,WNW,295,0.0,0.0,87,0.00,,,0.11,Wunderground v.1.12,2013-01-30 01:11:00,
2013-01-29 20:16:00,32.2,29.0,30.07,WNW,295,0.0,1.0,88,0.00,,,0.11,Wunderground v.1.12,2013-01-30 01:16:00,
2013-01-29 20:22:00,32.2,29.0,30.08,WNW,295,0.0,1.0,88,0.00,,,0.11,Wunderground v.1.12,2013-01-30 01:22:00,
2013-01-29 20:28:00,32.2,29.0,30.08,WNW,295,1.0,1.0,88,0.00,,,0.11,Wunderground v.1.12,2013-01-30 01:28:00,
2013-01-29 20:34:00,32.4,29.2,30.08,WNW,295,0.0,1.0,88,0.00,,,0.11,Wunderground v.1.12,2013-01-30 01:34:00,
2013-01-29 20:39:00,32.4,29.2,30.08,WNW,295,0.0,0.0,88,0.00,,,0.11,Wunderground v.1.12,2013-01-30 01:39:00,
2013-01-29 20:45:00,32.2,29.0,30.08,WNW,295,0.0,0.0,88,0.00,,,0.11,Wunderground v.1.12,2013-01-30 01:45:00,
2013-01-29 20:51:00,32.2,29.3,30.08,WNW,295,0.0,0.0,89,0.00,,,0.11,Wunderground v.1.12,2013-01-30 01:51:00,
2013-01-29 20:57:00,32.2,29.3,30.08,WNW,295,0.0,0.0,89,0.00,,,0.11,Wunderground v.1.12,2013-01-30 01:57:00,
2013-01-29 21:03:00,32.2,29.3,30.08,WNW,295,0.0,0.0,89,0.00,,,0.11,Wunderground v.1.12,2013-01-30 02:03:00,
2013-01-29 21:09:00,32.2,29.3,30.08,WNW,295,0.0,0.0,89,0.00,,,0.11,Wunderground v.1.12,2013-01-30 02:09:00,
2013-01-29 21:15:00,32.2,29.3,30.08,WNW,295,0.0,0.0,89,0.00,,,0.11,Wunderground v.1.12,2013-01-30 02:15:00,
2013-01-29 21:21:00,32.2,29.3,30.08,WNW,295,0.0,0.0,89,0.00,,,0.11,Wunderground v.1.12,2013-01-30 02:21:00,
2013-01-29 21:27:00,32.2,29.3,30.08,WNW,295,0.0,0.0,89,0.00,,,0.11,Wunderground v.1.12,2013-01-30 02:27:00,
2013-01-29 21:33:00,32.2,29.3,30.07,WNW,295,0.0,0.0,89,0.00,,,0.11,Wunderground v.1.12,2013-01-30 02:33:00,
2013-01-29 21:38:00,32.2,29.3,30.07,WNW,295,0.0,0.0,89,0.00,,,0.11,Wunderground v.1.12,2013-01-30 02:38:00,
2013-01-29 21:43:00,32.2,29.3,30.07,WNW,295,0.0,1.0,89,0.00,,,0.11,Wunderground v.1.12,2013-01-30 02:43:00,
2013-01-29 21:49:00,32.2,29.3,30.08,WNW,295,0.0,1.0,89,0.00,,,0.11,Wunderground v.1.12,2013-01-30 02:49:00,
2013-01-29 21:54:00,32.2,29.3,30.08,WNW,295,0.0,3.0,89,0.00,,,0.11,Wunderground v.1.12,2013-01-30 02:54:00,
2013-01-29 22:00:00,32.2,29.3,30.08,WNW,295,0.0,2.0,89,0.00,,,0.11,Wunderground v.1.12,2013-01-30 03:00:00,
2013-01-29 22:06:00,32.2,29.3,30.07,WNW,295,0.0,0.0,89,0.00,,,0.11,Wunderground v.1.12,2013-01-30 03:06:00,
2013-01-29 22:11:00,32.2,29.3,30.07,WNW,295,0.0,1.0,89,0.00,,,0.11,Wunderground v.1.12,2013-01-30 03:11:00,
2013-01-29 22:16:00,32.2,29.6,30.07,WNW,295,0.0,1.0,90,0.00,,,0.11,Wunderground v.1.12,2013-01-30 03:16:00,
2013-01-29 22:22:00,32.2,29.6,30.06,WNW,295,0.0,0.0,90,0.00,,,0.11,Wunderground v.1.12,2013-01-30 03:22:00,
2013-01-29 22:28:00,32.2,29.9,30.06,WNW,295,0.0,0.0,91,0.00,,,0.11,Wunderground v.1.12,2013-01-30 03:28:00,
2013-01-29 22:33:00,32.2,29.9,30.07,WNW,295,0.0,3.0,91,0.00,,,0.11,Wunderground v.1.12,2013-01-30 03:33:00,
2013-01-29 22:38:00,32.1,29.8,30.07,WNW,295,0.0,1.0,91,0.00,,,0.11,Wunderground v.1.12,2013-01-30 03:38:00,
2013-01-29 22:44:00,32.1,30.0,30.07,WNW,295,0.0,0.0,92,0.00,,,0.11,Wunderground v.1.12,2013-01-30 03:44:00,
2013-01-29 22:50:00,32.1,30.0,30.06,WNW,295,0.0,0.0,92,0.00,,,0.11,Wunderground v.1.12,2013-01-30 03:50:00,
2013-01-29 22:56:00,32.1,30.0,30.06,WNW,295,0.0,0.0,92,0.00,,,0.11,Wunderground v.1.12,2013-01-30 03:56:00,
2013-01-29 23:01:00,32.1,30.0,30.06,WNW,295,0.0,0.0,92,0.00,,,0.11,Wunderground v.1.12,2013-01-30 04:01:00,
2013-01-29 23:07:00,32.1,30.0,30.06,WNW,295,0.0,0.0,92,0.00,,,0.11,Wunderground v.1.12,2013-01-30 04:07:00,
2013-01-29 23:12:00,32.1,30.0,30.06,WNW,295,0.0,0.0,92,0.00,,,0.11,Wunderground v.1.12,2013-01-30 04:12:00,
2013-01-29 23:18:00,31.9,30.1,30.06,WNW,295,0.0,0.0,93,0.00,,,0.00,Wunderground v.1.12,2013-01-30 04:18:00,
2013-01-29 23:23:00,31.9,30.1,30.06,N/A,-737280,0.0,0.0,93,0.00,,,0.11,Wunderground v.1.12,2013-01-30 04:23:00,
2013-01-29 23:28:00,32.1,30.3,30.06,WNW,295,0.0,0.0,93,0.00,,,0.00,Wunderground v.1.12,2013-01-30 04:28:00,
2013-01-29 23:34:00,32.1,30.3,30.06,WNW,295,0.0,0.0,93,0.00,,,0.00,Wunderground v.1.12,2013-01-30 04:34:00,
2013-01-29 23:39:00,32.1,30.3,30.06,WNW,295,0.0,0.0,93,0.00,,,0.00,Wunderground v.1.12,2013-01-30 04:39:00,
2013-01-29 23:47:00,31.9,30.1,30.06,WNW,295,0.0,0.0,93,0.00,,,0.00,Wunderground v.1.12,2013-01-30 04:47:00,
2013-01-29 23:53:00,31.9,30.1,30.05,N/A,-737280,0.0,0.0,93,0.00,,,0.00,Wunderground v.1.12,2013-01-30 04:53:00,
2013-01-29 23:58:00,32.1,30.3,30.05,WNW,295,0.0,0.0,93,0.00,,,0.00,Wunderground v.1.12,2013-01-30 04:58:00,